Volver al catálogo

POPACS 3

ActivoCienciaPO
NORAD 39270·PAYLOAD·🇺🇸 United States

Lanzado Sep 29, 2013 desde Vandenberg Space Force Base

Loading…

Próximos Pases (próximas 24 horas)

TLE

ActualizadoSource: Space-Track

Época: Sep 13, 2026, 22:10 UTC

1 39270U 13055F   26256.92363054  .00007938  00000-0  18585-3 0  9995
2 39270  81.0005 132.8524 0546394 159.1308 203.3176 14.57409511651472

Sigue POPACS 3 en tiempo real con AllMySat

Download on the App Store